Simultaneous Nadir Overpasses (SNOs) Predictions

Prediction of SNOs between AURA and NPP Satellite Orbit:

Table of predicted SNOs for the next 14.0 days since TLE Epoch: 7/2/2016
Index Date (AURA) Time (AURA) Lat,Lon (AURA) SZA (AURA ) Date (NPP) Time (NPP) Lat,Lon (NPP) SZA (NPP ) Distance(km) Time Diff (sec)
1 07/03/2016 10:35:28 -79.24, 96.07 109.52 07/03/2016 10:34:55 -79.24, 96.18 109.52 2.37 33
2 07/03/2016 11:24:49 79.42, -95.06 70.21 07/03/2016 11:25:34 79.42, -95.11 70.19 1.02 45
3 07/06/2016 02:51:56 -79.26,-147.89 109.29 07/06/2016 02:51:49 -79.26,-147.93 109.28 0.76 7
4 07/06/2016 03:41:13 79.60, 22.01 70.22 07/06/2016 03:42:23 79.60, 22.12 70.15 2.28 70
5 07/08/2016 18:19:02 79.07, 159.14 71.31 07/08/2016 18:18:03 79.07, 159.17 71.34 0.93 59
6 07/08/2016 19:08:23 -79.32, -31.64 109.06 07/08/2016 19:08:42 -79.31, -31.78 109.05 3.14 19
7 07/11/2016 10:35:28 79.16, -84.42 71.53 07/11/2016 10:34:55 79.16, -84.46 71.56 0.87 33
8 07/11/2016 11:24:46 -79.49, 85.36 108.95 07/11/2016 11:25:30 -79.49, 85.43 109.00 1.61 44
9 07/14/2016 02:51:53 79.24, 32.00 71.80 07/14/2016 02:51:46 79.24, 31.92 71.82 1.89 7




NCC Satellite Simultaneous Nadir Overpasses (SNOs) Prediction Service
